Theta_e
332 321 324 337 342 341 341 341 341 338 337 338 338 336 334 335 332 324 318 326 337 338 338 339 340 341 342 343 342 342 342 342 342 342 342 342 342 342 342 343 342 341 341 339 336 333 332 331 331 330 329 329 328 328 328 330 334 336 334 330 328 330 330 328 328 330 334 336 336 336 338 339 339 340 340 339 337 334 333 333 334 334 335 336 336
333 326 330 339 341 339 338 338 339 337 337 338 337 335 334 335 331 322 318 329 337 337 339 339 340 341 341 342 341 342 341 342 342 342 342 342 342 342 342 342 342 341 340 336 332 331 332 333 331 329 328 327 325 324 323 322 325 332 333 330 329 330 331 329 329 330 333 335 335 336 337 338 340 340 339 336 334 333 330 330 329 329 330 332 335
327 331 336 340 340 337 335 333 336 337 337 338 337 335 334 334 329 320 319 330 338 338 340 340 340 341 341 342 341 342 341 342 342 342 342 342 342 342 342 341 341 340 338 333 333 335 336 335 329 326 325 323 322 321 321 319 318 326 333 332 329 330 332 331 333 333 331 331 331 333 335 337 338 335 331 330 331 332 331 331 330 328 328 329 332
325 334 338 341 340 336 333 329 332 337 336 338 336 334 335 333 327 320 320 331 338 340 340 340 341 341 341 341 341 342 341 342 342 342 342 341 341 341 341 341 340 339 336 334 335 337 337 334 328 324 322 321 320 317 315 314 313 319 329 332 329 328 333 334 336 335 331 330 329 328 331 333 331 327 323 325 331 332 333 333 332 331 330 329 330
324 334 339 341 340 336 332 326 329 336 337 337 335 333 335 332 326 321 321 332 339 340 340 341 341 341 341 342 342 342 342 342 342 342 342 341 341 341 341 341 340 338 336 336 337 338 337 334 330 325 321 320 318 315 315 315 315 317 323 328 328 327 331 334 337 336 334 333 333 329 326 326 325 323 320 323 330 333 334 333 332 331 330 330 330
322 330 337 338 338 338 331 324 328 335 337 336 334 334 335 330 325 322 323 333 339 340 341 341 342 342 342 342 343 343 342 342 342 342 342 341 341 341 341 340 339 338 338 337 337 337 336 334 330 326 321 319 317 317 320 320 320 320 321 323 325 325 327 331 335 337 336 335 337 335 326 324 329 329 327 328 332 334 334 334 332 330 329 330 330
320 322 331 333 336 337 331 326 330 335 337 336 333 334 334 329 325 323 327 336 340 340 341 342 343 343 342 342 343 342 342 341 342 342 341 341 340 340 339 339 338 337 338 337 338 338 335 331 328 326 320 316 319 323 324 325 324 325 325 325 326 326 327 329 332 333 335 336 337 337 327 325 332 334 334 333 334 334 333 333 331 328 328 330 329
319 317 323 328 333 336 333 330 332 335 336 334 333 335 333 328 325 325 331 338 341 341 341 343 343 342 343 342 343 342 342 342 341 341 340 340 340 340 341 340 339 338 339 338 339 337 333 329 327 326 318 315 323 327 326 327 327 327 328 328 329 330 331 331 333 332 334 334 334 335 327 325 332 335 335 334 333 333 333 332 330 328 328 329 329
319 318 320 324 333 336 335 332 332 334 335 333 333 335 331 327 326 329 336 340 340 341 342 343 343 342 342 342 342 342 342 342 340 340 340 340 340 341 340 339 338 338 337 335 334 332 330 328 328 326 317 314 323 327 327 328 328 329 329 330 331 331 333 333 334 333 334 333 333 332 325 328 334 334 334 334 333 332 331 330 330 330 329 330 329
321 321 320 322 334 337 336 334 333 334 334 333 334 334 329 326 329 335 339 340 341 342 343 343 342 342 342 342 342 342 342 341 340 339 339 340 340 339 338 338 337 335 334 333 331 328 328 329 328 325 316 314 321 326 328 329 329 330 331 331 332 332 334 334 333 332 332 332 332 329 324 329 333 334 335 334 333 332 331 331 331 331 332 332 330
324 324 320 324 335 337 335 335 334 335 334 334 335 331 327 328 333 339 341 341 342 342 343 343 342 342 342 341 341 341 341 340 340 340 339 339 339 337 336 336 335 335 335 333 330 327 329 329 329 325 316 315 322 327 329 330 331 332 332 332 333 333 334 334 332 331 331 331 331 327 323 326 330 333 335 333 332 332 333 333 333 333 333 332 329
329 325 323 330 336 334 335 337 337 336 335 334 332 329 328 332 337 341 342 342 343 343 343 342 342 341 341 340 340 339 338 338 338 337 337 336 336 334 333 333 329 330 332 328 327 328 329 329 329 324 316 317 323 328 331 331 332 332 332 333 333 333 333 334 333 332 332 332 331 326 323 325 328 333 333 332 332 332 334 333 333 333 331 329 328
331 329 330 337 336 334 337 339 339 336 334 332 330 329 331 336 341 342 343 343 343 343 342 342 341 340 339 338 336 334 332 331 330 330 330 330 331 329 327 329 326 323 327 326 326 328 329 328 329 325 317 318 324 329 331 331 332 332 332 333 333 333 334 333 333 334 334 334 330 324 324 325 328 331 332 332 332 332 332 332 332 331 330 329 328
329 332 335 337 335 336 339 340 340 337 333 331 331 331 333 340 343 343 343 343 343 343 342 342 340 338 337 334 332 330 328 324 321 321 322 322 323 321 317 321 321 320 324 326 326 328 329 328 329 326 319 319 325 329 331 331 332 332 333 333 334 334 334 334 333 335 335 334 329 324 325 326 326 327 330 332 332 331 331 330 329 329 329 329 329
325 330 335 336 337 338 338 339 339 337 333 330 331 332 337 342 342 342 343 343 343 342 342 341 338 336 335 333 332 330 326 320 316 316 315 315 314 314 312 313 316 317 322 326 326 328 329 328 329 327 321 319 324 329 331 331 331 332 333 334 335 334 334 334 335 335 335 334 329 326 328 329 326 325 327 329 330 330 331 330 329 329 326 326 329
325 329 335 337 339 339 338 337 337 337 333 332 334 337 341 342 342 342 343 343 342 341 341 339 337 336 335 335 333 330 326 319 315 314 312 310 309 309 310 310 312 315 320 325 326 328 329 328 328 327 323 320 324 329 331 331 331 332 333 334 334 334 334 335 335 335 336 335 332 329 331 330 326 326 326 327 327 327 330 329 329 330 327 326 327
325 327 333 337 338 339 339 338 338 337 335 336 337 340 342 342 342 342 342 342 341 341 340 338 337 336 336 334 331 328 324 319 316 314 310 308 308 308 308 308 310 313 320 325 325 327 329 329 328 327 326 322 322 326 329 329 331 333 334 334 334 334 335 336 335 335 336 336 333 332 333 330 325 325 325 326 327 328 329 329 328 327 327 326 326
322 323 328 333 335 337 339 339 339 338 338 339 340 341 342 342 343 342 342 341 341 340 339 338 337 336 334 332 329 327 324 320 317 315 312 309 308 308 308 307 308 312 320 326 325 326 328 329 329 328 327 325 323 324 324 325 330 333 334 333 333 335 335 335 336 335 336 337 334 334 333 329 326 324 324 325 327 327 328 328 327 327 327 325 323
329 329 329 332 333 336 339 340 341 341 341 342 342 342 342 342 343 343 342 341 340 339 339 338 337 335 333 331 328 327 325 322 319 317 315 312 309 308 308 307 307 310 319 325 325 325 327 328 329 329 328 327 326 325 324 325 330 333 333 334 334 334 333 334 335 335 335 336 335 334 332 329 327 326 324 324 325 327 327 326 327 328 328 326 324
337 336 336 336 334 336 338 340 342 343 343 342 342 342 343 343 343 342 341 340 340 339 339 338 335 333 332 331 329 330 327 325 326 322 318 316 314 310 308 308 307 309 317 324 325 325 325 326 328 328 328 327 327 327 326 326 329 332 332 331 330 328 329 333 335 335 334 335 337 334 331 330 330 327 325 324 324 325 327 326 326 326 326 326 325
339 338 339 339 336 336 338 340 342 343 343 342 342 342 342 343 343 342 340 340 340 340 339 337 334 333 333 333 334 336 335 333 335 331 323 319 317 315 311 308 307 308 315 322 325 325 325 325 326 326 327 326 327 326 326 326 326 328 328 325 327 327 329 333 336 336 334 335 337 334 331 332 331 328 326 325 325 325 326 327 326 326 326 326 326
338 338 339 339 338 337 338 340 342 343 342 342 342 342 342 342 342 341 340 340 340 340 339 337 334 334 336 337 338 339 338 338 337 334 327 320 318 318 315 311 310 309 312 319 323 324 324 324 324 324 324 324 324 324 324 326 326 325 328 329 332 333 331 333 335 336 335 334 335 333 333 333 331 329 328 328 327 327 326 327 326 326 327 327 328
337 338 338 339 338 338 339 340 341 341 342 343 343 342 342 342 342 341 340 340 340 340 338 337 335 335 337 339 340 339 339 339 337 335 331 326 323 321 321 321 319 314 311 315 319 322 323 324 322 320 322 322 323 323 322 324 326 327 332 334 334 335 333 333 335 336 336 334 333 333 334 333 331 330 330 329 328 328 328 327 327 326 327 326 329
338 337 338 339 339 339 339 339 340 340 341 343 342 342 342 342 342 340 340 340 340 339 338 337 336 336 337 339 340 339 339 339 337 337 334 331 331 327 327 329 329 324 317 315 319 326 328 329 328 327 328 328 327 326 324 324 327 332 334 334 333 334 333 333 335 336 336 336 334 333 334 332 331 331 331 330 329 329 329 328 328 327 327 327 327
338 338 338 338 338 338 339 339 339 339 341 342 341 342 342 342 342 340 340 340 339 339 337 336 336 336 338 338 339 340 340 338 337 338 335 334 336 334 333 333 333 332 330 327 329 334 334 334 334 334 334 333 332 331 330 328 329 332 333 333 333 334 333 332 332 334 335 335 334 334 333 332 332 332 332 331 330 330 329 329 329 328 328 327 327
339 338 338 337 337 337 337 338 338 338 340 341 341 341 341 341 341 340 339 339 338 338 337 336 337 338 338 338 339 339 339 339 338 339 337 335 337 338 337 337 337 336 335 334 335 337 337 336 336 335 335 334 334 333 333 333 332 333 334 333 332 333 334 333 331 333 334 333 333 333 332 333 333 333 333 333 332 331 330 330 329 329 328 328 327
339 338 338 338 338 336 335 336 336 336 338 339 341 340 340 340 340 339 339 338 338 338 338 338 338 339 339 338 338 337 337 339 337 336 336 335 337 338 340 340 339 338 337 335 335 337 337 338 337 336 336 335 335 334 335 336 336 337 337 335 333 332 334 334 332 333 334 334 333 333 333 333 334 334 334 334 334 332 332 331 331 329 328 328 328
340 339 339 340 339 337 335 335 334 333 335 337 340 340 339 339 339 339 337 337 338 339 339 338 339 339 339 337 334 335 336 338 336 335 335 336 338 339 340 339 338 338 337 336 337 338 339 339 338 337 337 337 336 336 337 338 338 338 338 336 334 333 334 334 334 333 333 334 333 333 333 333 334 334 334 334 334 334 333 332 331 331 329 329 329
339 339 340 340 339 339 339 338 336 334 333 335 338 338 338 338 338 338 337 337 337 338 338 338 339 338 338 335 332 334 336 338 338 336 337 337 339 340 339 339 339 339 339 339 339 340 340 338 338 337 337 338 338 338 338 338 338 338 338 337 336 335 335 335 334 334 333 333 332 333 333 333 334 334 334 335 335 335 334 333 332 332 330 329 330
338 338 339 339 340 340 340 339 336 334 333 335 338 336 335 336 337 337 337 337 337 337 337 338 339 337 336 334 332 336 338 339 338 339 339 338 339 340 340 339 339 340 341 340 340 339 338 337 338 339 339 339 339 339 339 339 339 338 338 337 337 336 336 335 335 335 334 333 332 332 333 334 334 334 335 335 335 334 334 334 332 332 331 330 331
337 337 338 339 340 340 340 339 334 332 332 333 334 332 334 336 336 337 337 337 337 337 337 337 338 336 335 333 333 337 339 338 338 339 340 339 339 339 340 340 339 340 340 341 340 339 339 338 339 340 340 340 340 339 339 339 338 338 338 337 337 337 336 336 336 336 335 334 333 333 334 334 335 335 336 335 335 335 334 333 333 334 334 333 332
337 338 338 339 340 340 341 339 334 334 334 332 332 332 335 336 336 338 337 337 338 338 337 337 335 334 334 333 335 338 339 338 339 339 339 339 339 339 339 340 340 340 340 340 340 340 340 339 339 339 339 339 339 338 338 337 337 337 336 336 336 336 337 337 337 337 337 336 335 334 334 334 335 335 336 336 336 335 335 334 333 335 336 335 334
337 339 339 340 340 340 341 339 336 335 336 335 334 335 335 336 337 337 336 336 337 336 337 336 335 335 335 335 337 339 339 339 339 339 339 339 340 340 341 340 340 340 341 340 340 340 339 339 338 337 337 337 336 336 335 335 336 336 336 336 336 336 336 336 337 337 337 337 336 335 335 334 334 335 336 337 337 336 335 335 335 334 335 336 336
338 339 339 340 340 341 340 339 337 336 337 337 336 336 336 336 337 336 336 335 335 335 337 337 337 336 337 337 338 339 340 340 340 339 340 340 340 340 340 341 341 341 340 340 340 339 338 338 337 336 336 336 336 336 336 335 335 336 336 336 336 336 336 336 337 336 336 336 337 337 336 336 335 335 336 337 336 336 336 336 335 334 334 334 335
339 338 339 339 339 340 339 337 336 337 338 338 337 337 337 337 336 336 336 335 335 336 337 338 338 338 338 339 338 339 340 340 341 341 340 339 340 339 340 340 340 340 340 339 339 338 338 338 337 336 336 335 336 336 335 336 336 336 336 336 336 336 336 336 335 335 335 335 336 336 336 337 336 336 336 337 336 336 335 334 334 334 332 333 334
339 339 339 339 339 338 337 336 336 337 338 337 336 336 336 337 336 336 336 336 336 336 337 337 338 339 339 339 338 339 340 340 341 340 340 340 339 339 339 340 340 340 339 339 338 337 337 337 336 336 336 335 336 336 336 336 336 336 336 335 335 335 335 334 334 335 335 335 336 336 336 336 337 337 337 337 337 336 336 335 334 333 332 332 333
339 339 338 338 337 337 336 336 336 336 335 336 336 335 336 336 336 336 337 337 337 337 338 338 338 339 340 339 339 339 340 340 340 340 340 340 339 339 340 340 340 339 338 338 337 336 336 335 335 335 335 336 336 336 336 336 336 335 335 334 334 334 334 333 333 334 334 335 336 336 336 336 337 337 337 337 337 337 336 336 335 334 332 332 333
338 337 337 336 336 336 336 336 335 335 335 335 336 335 336 336 336 336 337 338 338 339 339 338 338 339 340 340 339 339 339 339 339 339 340 339 339 339 339 339 339 338 337 336 335 335 336 335 335 335 335 335 335 335 335 336 335 334 334 333 333 333 333 332 333 334 334 335 335 336 336 336 336 337 337 337 337 336 336 336 336 334 333 333 333
337 337 337 337 336 335 335 335 336 336 336 336 337 337 336 336 337 338 338 339 339 339 339 339 339 339 339 339 339 339 339 339 339 339 339 339 339 338 337 337 337 336 336 335 334 334 335 335 334 334 334 335 335 334 335 335 334 334 333 333 332 332 332 332 334 334 333 334 334 335 335 335 336 336 336 336 336 336 336 335 335 335 334 334 333
337 337 338 337 336 336 336 336 336 336 336 337 337 337 338 337 338 339 339 339 339 339 338 338 339 339 339 338 338 338 338 338 338 338 338 338 337 336 336 336 335 336 335 334 333 333 334 334 334 334 334 334 334 333 334 334 333 333 332 332 332 332 333 334 334 332 332 333 333 333 334 335 335 335 335 335 335 335 335 335 335 335 335 334 333
337 337 337 337 337 337 337 337 337 336 336 337 338 338 338 339 339 339 339 338 338 337 337 338 338 338 338 337 337 337 336 336 336 336 336 336 335 335 335 334 334 334 333 332 332 332 332 332 333 333 332 332 332 331 332 333 332 331 332 332 331 331 334 336 333 330 332 333 332 333 333 333 333 334 335 336 336 335 335 335 334 334 334 334 333
338 337 337 338 338 337 337 338 338 337 337 337 338 338 339 339 339 339 338 337 336 337 337 337 337 337 336 335 335 335 335 335 335 335 335 334 334 334 333 333 333 333 332 331 331 331 330 330 330 331 330 330 329 328 329 330 330 329 330 332 332 331 332 334 331 329 332 332 331 332 332 331 330 331 333 335 335 336 336 335 335 334 334 333 333
338 337 338 338 338 338 338 338 338 338 338 338 338 339 339 339 339 339 337 336 336 336 336 336 335 334 333 333 333 333 334 334 334 335 334 333 333 333 332 331 331 331 330 330 329 329 328 327 327 327 328 328 327 326 326 326 327 328 330 331 333 333 332 331 328 328 331 331 330 331 330 330 327 327 330 330 330 331 332 333 333 334 334 334 334
338 338 338 338 338 339 338 339 339 339 339 339 339 339 339 338 338 337 336 336 335 335 334 333 333 332 332 332 332 332 333 332 332 332 332 331 331 331 330 329 329 329 328 328 326 325 325 325 325 325 326 325 325 324 324 324 324 326 328 330 332 333 333 329 326 328 330 329 330 329 327 327 325 324 327 326 325 325 325 326 326 328 331 332 333
337 338 338 338 338 339 339 339 339 339 339 339 339 339 338 337 336 335 335 335 335 334 332 331 331 331 331 330 330 331 331 330 330 330 330 329 329 328 328 327 327 326 326 325 324 323 323 323 323 323 323 323 323 322 322 322 322 323 325 327 329 330 329 326 326 329 327 325 329 327 323 323 321 322 325 323 321 321 321 322 323 325 328 330 332
337 338 338 338 338 338 339 339 339 339 339 338 338 338 338 336 335 335 335 335 334 333 331 330 330 329 329 329 328 328 328 328 328 328 327 327 326 326 326 325 325 324 324 323 322 322 322 321 321 322 321 321 321 320 319 320 320 320 321 322 324 325 325 324 326 327 324 323 326 324 321 320 318 320 322 319 317 318 320 322 324 325 326 328 331
337 338 338 337 337 338 339 338 339 339 338 338 337 337 337 335 335 335 335 335 334 332 330 329 329 328 328 327 327 326 326 326 325 325 324 324 324 324 323 323 323 322 321 321 321 320 320 320 320 320 319 319 319 317 316 317 318 318 318 318 319 320 321 321 322 322 322 322 322 320 319 317 316 317 318 317 315 317 320 321 322 322 322 326 330
337 337 337 337 337 337 338 338 338 338 338 337 336 336 335 334 335 335 335 335 334 331 329 328 327 327 326 326 325 325 324 324 323 323 322 322 322 321 321 321 321 320 320 319 319 319 318 318 318 317 317 316 316 315 314 315 315 315 315 316 317 318 318 318 318 319 321 321 320 318 317 316 316 316 317 316 314 315 317 319 319 319 321 325 326
337 337 337 336 336 337 337 337 337 337 337 336 335 334 334 334 334 334 334 334 332 329 328 327 326 326 325 324 323 323 322 322 321 321 320 320 319 319 319 319 318 318 318 318 317 317 316 315 315 314 314 314 313 313 313 313 314 314 315 315 316 317 317 316 316 316 318 319 318 317 315 315 315 315 315 314 312 312 314 316 316 316 319 320 319
336 336 336 336 336 336 336 336 336 336 336 336 334 333 334 334 334 334 334 333 331 328 327 327 326 325 324 322 322 321 320 319 319 318 318 318 318 316 316 317 316 316 316 316 315 315 314 314 314 314 314 313 312 312 312 313 313 313 314 314 315 315 316 315 314 313 314 315 315 314 314 314 312 313 313 311 310 310 311 313 312 312 316 316 314
336 336 336 336 335 335 335 335 335 335 335 335 334 333 333 334 333 334 334 332 329 328 327 326 324 323 321 320 320 319 318 318 317 317 317 317 316 315 315 315 315 315 315 315 314 313 313 313 314 314 313 313 312 312 312 313 313 312 311 311 311 312 312 312 312 311 311 311 312 312 312 310 310 310 310 308 308 308 310 311 309 310 313 311 308
Wind_Speed
27 26 25 25 24 23 21 22 22 24 25 23 23 22 21 19 18 17 19 20 19 19 19 19 19 19 19 18 18 18 18 18 18 18 18 17 17 16 15 15 15 15 14 14 13 13 13 13 12 11 11 11 10 10 10 10 12 14 14 13 14 15 15 14 14 13 13 14 14 13 12 11 12 13 14 13 12 10 10 10 10 11 12 12 12
30 27 27 25 25 24 22 23 23 25 25 24 23 22 22 19 18 18 20 20 19 19 19 19 19 19 18 18 18 18 18 18 18 18 18 17 16 16 15 15 15 14 13 13 13 13 12 12 11 10 10 9 9 9 9 9 11 13 13 12 13 14 14 14 14 14 14 14 14 13 11 11 12 13 12 11 10 9 9 9 8 9 11 11 11
31 29 28 26 25 24 23 23 23 25 26 25 24 23 22 19 19 19 20 20 19 19 19 19 19 19 18 18 18 18 18 18 18 17 17 16 16 15 15 14 14 13 12 12 12 12 11 10 10 9 9 9 9 8 8 8 10 12 12 11 12 13 13 13 14 14 14 13 12 12 11 10 10 10 10 9 9 10 9 9 9 9 9 10 10
31 30 28 26 24 24 24 23 25 26 26 25 24 23 22 20 19 19 21 20 19 18 19 19 19 18 18 18 18 18 18 18 17 17 17 16 15 14 14 13 13 12 12 12 11 11 10 9 9 9 10 9 9 8 9 10 11 13 12 10 10 12 12 12 12 11 13 13 11 10 10 10 9 8 8 8 9 10 10 9 9 9 9 10 10
32 31 28 27 25 26 24 24 26 27 27 26 25 24 22 20 19 20 21 20 19 18 18 18 18 18 18 18 17 17 17 17 17 16 16 15 14 14 13 12 12 11 11 11 11 10 9 8 9 10 10 10 10 11 13 14 14 14 12 10 9 9 10 11 11 9 9 10 10 8 7 9 9 8 8 9 10 10 10 9 9 9 9 10 10
34 32 29 28 27 27 25 25 27 28 27 26 26 24 22 20 20 21 20 20 18 18 18 18 18 17 17 17 17 16 17 17 17 16 15 14 14 13 12 12 11 11 10 10 10 9 8 8 9 10 11 11 12 14 16 15 15 14 12 11 9 8 8 8 8 8 6 4 4 5 5 8 10 10 10 11 11 11 10 9 8 9 10 10 10
34 33 31 30 29 27 26 26 27 29 28 27 26 24 22 21 20 21 21 20 18 18 18 17 17 17 17 16 16 16 16 16 16 15 14 14 14 12 11 10 10 10 9 9 9 8 7 7 8 10 12 12 15 15 15 15 14 13 12 10 9 7 6 5 4 4 5 4 2 2 3 8 10 10 10 11 12 12 10 8 7 9 10 9 10
35 34 31 31 29 27 26 26 27 29 28 27 26 24 22 21 21 21 21 20 19 19 18 17 17 17 16 16 15 16 16 15 15 15 14 14 13 11 11 10 9 9 9 8 8 7 7 7 8 10 12 14 16 15 14 13 12 11 11 10 9 8 7 7 4 2 5 6 6 3 3 8 10 10 10 10 11 11 10 9 8 9 9 9 9
36 34 32 31 28 27 26 26 28 30 29 28 26 24 23 22 22 22 21 20 19 18 18 17 16 17 16 16 15 15 15 14 14 14 13 13 12 11 10 10 9 8 7 7 7 7 7 7 8 10 11 14 15 15 13 12 11 10 9 9 9 9 10 8 5 4 6 8 8 5 6 10 11 10 9 9 10 10 10 10 10 9 9 9 9
36 34 32 31 28 27 27 27 28 29 29 28 26 25 23 23 23 22 21 20 20 18 18 17 16 16 16 15 15 14 13 12 12 12 12 11 10 9 8 8 7 6 6 6 7 8 7 7 8 10 11 13 14 14 12 11 10 9 9 9 9 10 10 8 6 7 8 8 8 6 7 10 11 10 8 8 9 10 10 10 10 9 9 9 8
35 33 32 31 28 26 27 27 27 28 29 28 27 25 24 24 24 22 21 20 20 19 18 17 16 16 15 14 14 13 11 11 11 10 10 10 9 8 7 7 7 6 7 7 8 8 7 7 8 9 10 13 14 13 12 11 10 9 9 10 10 11 10 9 7 8 8 8 7 6 7 9 10 10 8 7 8 9 10 10 10 10 9 7 5
33 33 32 30 27 26 27 25 25 27 28 28 27 26 25 25 23 22 21 20 19 19 18 17 16 15 15 14 12 11 9 9 9 8 8 8 7 6 6 6 6 7 8 8 8 8 7 8 8 9 10 13 13 12 11 10 9 9 9 10 11 12 10 9 8 8 7 6 6 6 7 7 9 9 8 7 7 8 9 8 8 8 6 4 4
32 32 30 28 26 26 26 23 24 26 28 27 26 26 25 24 22 21 21 20 19 18 18 17 16 15 14 12 11 9 7 6 5 6 5 6 6 4 5 6 5 7 8 8 8 7 7 8 9 9 10 12 13 12 10 9 8 8 8 9 11 12 10 8 9 8 7 6 5 6 7 6 7 7 7 7 6 6 7 6 6 5 4 4 5
33 31 28 27 25 24 22 22 23 24 27 26 25 26 25 24 22 22 21 20 19 18 17 17 16 15 13 11 9 7 6 5 5 5 5 5 5 4 4 6 7 8 9 8 8 7 7 8 9 9 10 11 11 11 9 8 7 7 7 8 10 12 11 7 8 8 7 5 5 6 7 6 6 5 5 5 5 5 5 4 4 4 4 5 5
33 31 28 26 24 22 20 21 22 23 25 25 25 25 24 23 22 22 21 20 19 18 17 16 15 13 12 10 7 6 5 5 5 5 5 5 5 5 5 6 8 9 10 9 8 7 7 8 8 9 10 10 11 10 8 7 6 5 6 8 9 11 12 7 6 8 7 4 4 5 5 6 5 4 3 3 4 4 4 3 4 4 4 5 6
32 30 28 26 23 21 20 20 21 22 24 25 24 24 23 22 22 21 20 19 18 17 16 15 14 12 10 8 6 6 6 6 5 5 5 5 5 5 5 7 8 10 11 10 9 7 7 7 8 9 9 9 9 9 8 6 5 4 5 7 8 9 10 8 3 7 6 4 3 3 4 6 6 5 3 1 1 2 3 3 4 3 3 4 5
30 29 28 25 22 22 20 19 20 21 22 23 23 23 22 21 21 20 19 19 17 16 15 14 12 11 9 7 7 6 6 6 6 6 5 5 5 5 6 7 9 11 11 11 9 8 7 7 7 7 8 8 7 7 7 5 4 3 4 5 6 7 9 9 4 3 5 5 3 2 3 5 6 5 4 3 1 0 2 2 1 2 1 3 3
29 29 28 25 23 22 21 20 19 20 20 21 21 20 20 20 20 19 18 17 16 15 14 13 11 10 9 8 8 7 7 7 7 7 6 6 5 5 6 8 9 11 12 11 9 7 7 6 6 6 6 6 6 4 4 4 4 3 4 4 5 6 7 9 8 3 5 6 5 2 2 4 5 6 5 4 3 2 1 2 1 1 2 2 2
30 30 28 26 24 23 22 21 20 20 20 20 19 19 19 19 18 17 17 16 15 15 14 12 11 9 9 8 8 8 8 8 8 8 7 8 7 6 6 8 10 11 12 11 9 7 6 5 5 5 4 4 4 4 2 3 4 4 3 3 3 4 5 7 9 6 4 8 6 3 2 3 4 6 5 4 3 3 2 1 1 2 3 2 2
30 30 29 27 26 26 24 22 21 21 20 20 20 19 18 17 17 16 16 15 15 14 13 11 10 9 8 8 8 8 9 9 9 9 9 9 9 8 6 6 9 11 12 11 8 6 5 4 4 4 3 3 3 3 2 2 3 3 2 1 2 4 5 5 8 8 3 7 7 5 3 3 4 6 6 5 4 4 2 2 2 3 4 2 2
26 27 28 27 27 27 25 24 23 22 21 21 20 19 18 17 16 15 15 15 14 13 12 11 10 9 8 9 9 9 9 9 9 10 10 10 10 10 8 7 7 9 11 10 8 6 4 2 2 2 2 2 2 2 1 1 3 2 2 1 4 6 7 7 7 9 5 6 8 7 5 4 4 5 6 5 5 5 3 3 4 1 2 1 3
24 25 25 26 27 27 25 24 23 22 22 21 20 20 18 18 16 16 16 15 14 13 12 11 10 8 8 7 7 8 8 8 9 10 10 11 11 11 10 10 7 6 7 8 7 5 2 0 2 3 3 4 4 4 5 5 3 3 3 4 7 8 8 8 8 9 8 5 9 9 8 6 5 5 6 6 6 6 5 5 4 2 2 1 3
22 23 23 25 26 26 25 24 23 22 22 21 20 20 19 19 17 17 16 16 14 13 12 11 9 8 7 7 6 6 6 7 7 8 9 10 10 10 10 11 10 7 5 5 4 2 1 3 3 4 5 5 6 6 7 6 3 4 5 8 9 9 9 8 8 10 10 7 9 11 10 8 7 6 6 6 6 6 6 5 4 3 2 2 6
22 24 24 23 23 24 23 22 21 21 21 21 21 20 20 19 18 17 17 17 15 13 12 10 8 7 7 7 5 4 4 4 5 5 5 8 9 9 9 9 9 9 7 6 5 5 4 4 4 5 5 7 8 8 8 7 5 6 8 9 9 9 9 7 8 10 11 10 10 12 12 10 8 7 7 6 6 7 7 6 5 3 3 2 6
23 24 24 23 22 21 22 21 20 21 21 21 21 20 19 19 18 17 17 16 15 13 11 9 8 7 6 6 4 2 3 2 3 3 2 4 6 6 6 7 7 7 7 7 5 4 4 4 5 6 7 8 9 10 10 10 10 10 12 14 13 12 10 9 9 11 12 12 10 13 14 11 9 8 7 7 7 8 8 7 6 5 5 4 5
23 23 23 22 21 20 20 19 18 19 20 20 20 18 18 18 17 17 17 16 14 12 10 9 8 7 5 4 3 3 3 2 1 2 0 3 3 3 3 4 4 4 4 4 3 4 3 3 5 6 7 8 9 10 11 12 12 13 14 16 17 16 14 12 10 10 12 13 10 11 13 12 10 9 9 9 8 9 9 8 7 6 7 6 5
23 22 23 21 20 20 19 18 17 18 19 19 18 17 17 17 16 16 16 15 13 12 10 10 8 6 4 2 3 3 4 3 4 4 3 3 3 2 1 2 1 2 2 2 2 4 4 4 5 6 7 8 9 9 10 11 12 13 15 15 15 16 17 15 13 12 13 15 13 12 12 12 11 11 11 11 10 10 10 10 9 8 8 8 7
25 24 24 23 22 20 19 18 16 17 17 18 18 17 16 16 16 15 15 15 13 12 10 9 7 4 4 4 3 5 4 2 4 5 4 3 2 0 0 1 1 1 1 1 2 4 5 6 7 7 8 8 9 10 11 12 13 14 15 14 13 12 14 16 16 15 14 15 15 14 14 13 13 13 13 12 12 12 12 12 12 10 9 9 10
28 27 25 24 25 22 20 19 16 16 17 18 19 18 17 16 15 15 15 14 13 12 10 9 8 5 6 5 4 6 6 2 2 4 3 2 1 1 1 1 1 2 2 2 3 5 6 8 8 8 8 9 10 11 12 13 13 14 14 14 13 12 13 14 14 15 15 16 16 16 16 15 15 15 14 14 13 14 14 13 13 13 11 10 11
27 25 23 24 25 23 21 20 18 15 16 20 21 19 18 17 16 15 15 15 13 12 10 9 10 8 7 6 5 7 5 3 2 2 3 3 3 3 2 1 1 1 2 3 5 6 7 7 7 7 7 9 10 10 11 12 13 13 12 13 13 13 13 13 12 12 14 17 18 17 16 16 16 16 16 16 15 16 15 14 15 15 14 12 12
25 24 25 27 26 23 22 23 23 21 20 22 22 21 20 18 16 15 15 14 13 13 12 11 12 11 8 7 7 8 7 5 3 3 3 3 4 4 3 2 0 1 2 3 5 6 6 6 6 7 8 9 10 10 11 12 12 12 12 12 12 13 14 14 12 10 11 14 16 16 16 16 17 17 17 17 17 17 16 15 16 17 16 14 14
26 26 27 31 30 25 24 25 26 26 24 23 23 21 20 18 17 15 14 14 13 14 15 13 11 10 9 9 10 9 8 7 5 3 2 1 1 2 1 1 1 2 3 4 5 6 6 6 6 8 8 9 10 11 11 12 12 12 12 13 13 14 14 13 13 12 12 13 14 15 16 16 17 18 18 18 18 18 17 17 16 17 17 16 17
28 29 31 35 34 29 27 26 28 29 25 24 25 23 20 20 18 16 13 13 15 15 15 14 12 10 10 10 11 9 5 4 5 5 5 4 3 3 2 2 2 3 4 4 5 6 6 6 7 8 9 10 11 12 12 13 13 13 13 14 15 15 14 14 13 14 14 14 13 14 16 17 18 19 18 18 18 19 20 19 18 18 18 17 18
31 33 37 39 36 33 29 26 28 29 25 25 27 25 24 23 20 16 15 16 17 16 15 14 12 11 11 11 10 8 4 4 4 4 5 4 4 3 3 3 3 3 3 5 6 6 6 6 8 9 10 11 12 13 14 14 13 14 14 15 15 16 15 15 14 14 15 14 14 14 15 17 17 18 19 20 20 20 22 22 21 20 19 19 20
35 36 39 40 36 33 29 26 27 28 27 28 27 25 25 25 21 18 17 17 16 15 14 13 12 12 11 10 9 8 7 6 5 4 3 3 2 1 1 2 3 3 3 5 5 5 6 7 7 9 10 11 12 13 14 14 14 14 15 15 16 17 16 16 16 15 15 15 15 16 17 17 17 18 19 20 21 21 22 22 22 22 21 21 22
38 37 38 39 36 33 30 29 29 29 31 31 27 25 25 24 21 18 17 16 15 14 14 13 12 11 10 8 8 8 8 7 6 4 4 3 2 1 1 2 3 4 4 4 5 6 7 7 7 9 11 11 12 13 13 13 14 15 15 16 16 16 16 16 16 16 16 16 16 17 18 18 18 19 20 20 20 21 20 21 22 23 21 21 22
41 40 40 40 38 34 31 32 33 33 32 31 28 25 25 23 20 18 16 15 14 14 13 13 13 11 9 7 8 8 7 6 5 4 4 3 3 3 3 3 4 6 6 5 6 6 7 8 8 9 10 10 11 12 12 13 14 16 16 17 16 16 16 15 15 15 15 16 16 17 18 18 18 19 19 20 20 21 20 19 20 21 21 20 21
44 43 42 42 41 36 34 34 34 32 31 29 28 26 25 22 19 18 16 15 14 13 12 12 12 11 9 7 7 6 6 6 5 5 7 7 7 7 6 7 7 8 8 7 7 6 7 8 9 9 9 10 11 13 14 13 14 16 16 16 15 14 14 13 14 13 13 14 15 16 17 18 18 18 19 20 21 20 20 19 19 19 20 20 19
41 39 38 40 42 39 36 35 33 31 29 28 27 25 24 22 20 18 16 14 13 12 12 12 11 10 9 7 5 5 6 6 6 8 10 10 10 10 9 10 9 8 8 9 8 7 7 7 8 8 8 9 12 13 13 12 13 14 15 15 13 12 11 10 9 11 13 13 14 14 16 17 17 18 19 20 20 19 19 19 19 20 20 19 19
32 33 34 36 40 40 37 35 32 31 30 28 27 25 23 21 20 18 15 14 13 12 12 11 11 10 8 7 7 9 11 12 11 11 12 12 12 11 11 10 9 8 9 10 11 10 9 8 9 8 8 9 11 14 12 12 12 13 15 13 11 11 10 5 7 12 14 13 12 12 13 16 17 19 20 19 19 18 19 19 20 20 21 20 20
25 28 31 32 36 38 37 34 32 31 30 29 28 25 24 22 20 18 16 15 14 14 13 11 11 10 11 12 14 15 15 15 14 13 13 12 12 11 10 10 8 9 10 12 11 11 10 9 8 8 9 10 13 16 14 12 13 15 15 13 12 11 8 4 6 14 15 14 14 13 13 16 18 19 19 19 19 19 19 19 20 21 21 21 21
25 28 30 31 34 35 35 34 32 30 29 28 27 25 24 22 21 20 18 17 15 14 13 13 14 15 16 17 18 17 16 15 13 12 12 11 11 10 10 10 9 9 10 10 9 9 10 10 9 8 9 11 13 16 17 13 12 13 9 9 11 10 9 4 8 15 13 14 16 14 15 17 19 20 19 18 20 21 22 22 23 24 23 23 22
24 26 28 31 32 32 33 32 31 30 28 27 26 24 22 21 21 20 19 18 16 15 16 17 18 19 19 19 18 16 14 13 12 10 10 10 9 9 9 9 9 9 8 8 9 10 11 11 11 10 8 10 12 14 18 16 15 13 5 4 5 6 8 7 13 18 11 12 14 14 16 17 19 22 20 21 22 23 23 23 25 26 26 26 26
21 23 27 29 29 30 31 31 30 28 27 26 24 23 21 19 20 20 20 19 20 21 21 21 20 20 18 17 15 13 11 11 11 9 10 10 9 9 9 9 9 9 8 9 11 11 11 11 11 12 11 10 12 13 15 17 18 14 5 3 2 3 4 5 17 16 6 10 11 12 18 18 21 23 21 22 23 24 24 24 25 26 26 27 27
19 23 26 26 26 28 29 29 28 27 26 25 24 23 21 21 21 21 21 22 23 23 23 22 20 19 18 16 13 11 10 10 10 9 9 9 9 9 9 9 10 9 9 10 11 11 11 12 12 12 13 12 12 12 13 15 18 17 10 4 2 3 2 7 14 8 7 14 9 10 17 18 22 22 20 23 24 25 25 25 27 28 28 27 27
19 22 23 23 25 27 27 27 26 25 24 23 23 23 22 22 23 24 25 24 22 20 22 22 20 19 18 16 14 11 9 9 9 8 8 8 9 9 9 9 9 10 10 9 10 10 11 13 12 12 14 13 11 13 15 14 15 17 15 11 6 5 4 8 7 3 11 13 5 10 17 18 23 20 18 24 25 25 24 25 28 29 29 28 27
20 21 20 22 25 26 25 25 24 24 23 22 22 22 23 24 24 26 27 25 21 20 21 22 21 20 18 15 13 11 9 9 9 8 8 8 8 8 8 9 10 10 10 9 11 12 12 13 13 13 14 13 13 17 18 15 14 16 15 13 11 11 10 9 5 4 9 5 5 14 17 20 23 17 18 25 25 25 24 25 27 27 28 27 26
21 21 21 23 25 25 25 24 24 24 23 22 21 22 24 24 25 26 25 24 23 23 23 23 21 19 18 15 13 12 9 8 8 8 8 8 8 8 8 8 10 10 10 11 13 12 12 13 13 13 15 16 16 18 19 18 16 16 16 16 15 14 14 14 11 8 5 5 9 14 18 23 19 13 19 24 25 26 24 24 25 25 27 25 25
22 22 22 23 24 24 24 24 23 22 22 22 21 21 22 24 25 26 24 23 25 26 24 23 21 19 18 16 14 13 10 9 8 7 8 9 9 9 10 10 11 12 12 13 13 13 14 14 15 17 18 20 19 19 20 20 18 17 17 17 17 15 13 14 17 15 7 5 7 9 18 26 19 15 21 25 27 26 21 23 23 23 25 23 23
21 22 22 23 23 23 23 23 22 21 21 22 21 20 21 23 26 27 26 26 26 25 24 23 20 19 19 17 15 14 12 11 11 10 10 10 10 11 13 14 15 15 14 14 14 15 16 16 17 19 20 21 21 21 21 20 19 20 20 20 19 16 13 11 16 17 11 7 7 7 14 19 18 20 23 27 28 24 20 21 22 23 24 23 25
21 21 22 22 22 22 22 22 21 20 21 20 20 19 20 24 27 27 28 28 27 26 25 23 21 20 20 19 17 15 14 13 13 12 11 11 12 14 16 16 17 16 16 15 15 16 17 17 18 19 19 19 20 21 20 19 20 22 23 23 22 19 16 13 13 15 12 8 7 8 12 17 18 20 25 28 25 21 19 20 23 25 23 25 28
Wind_Direction
164 161 158 158 158 155 149 147 144 143 141 141 141 138 135 130 125 124 127 126 121 118 115 113 110 109 106 106 106 107 107 108 108 108 107 106 105 104 102 101 102 100 97 94 92 90 88 87 85 83 82 81 82 84 87 92 96 97 98 94 91 91 88 85 85 87 93 96 94 94 92 89 90 92 90 82 73 77 84 80 83 86 81 78 80
161 159 157 157 158 153 150 148 145 143 141 143 142 140 137 132 128 128 131 127 123 120 117 115 113 112 109 109 109 109 109 109 109 108 107 105 104 103 103 101 100 99 97 95 95 91 87 84 79 76 75 75 76 79 85 91 98 104 105 98 94 94 92 89 87 85 91 99 100 97 93 89 88 88 85 76 74 83 84 78 80 83 81 80 81
156 156 157 157 158 153 151 148 146 143 142 144 142 141 138 134 131 131 133 129 125 122 120 117 116 114 113 113 112 112 111 111 110 108 107 106 105 103 102 101 100 98 98 100 97 91 85 79 75 75 72 68 70 74 83 90 103 113 115 105 98 99 97 92 90 89 86 91 102 107 105 103 97 89 81 78 81 84 80 77 80 79 80 84 85
155 155 156 157 157 154 152 150 147 144 143 144 143 142 139 137 134 134 134 131 128 124 122 119 117 116 116 116 115 114 113 113 111 110 108 106 105 104 104 102 101 100 100 100 93 88 81 74 70 69 68 65 68 74 81 92 108 118 122 114 102 103 104 98 95 94 84 80 89 102 112 111 102 93 87 92 91 86 80 76 78 75 74 80 84
156 155 155 156 156 154 152 150 148 145 145 145 144 143 141 139 136 136 136 133 130 126 124 121 119 119 118 118 117 117 116 116 113 111 110 108 107 105 105 102 101 99 97 93 87 84 78 70 64 60 61 63 71 83 90 97 108 117 122 119 109 104 107 108 106 108 97 80 71 71 98 109 102 99 99 102 99 93 86 80 81 81 81 81 82
157 156 156 156 156 155 153 151 148 146 146 145 145 145 143 140 139 138 137 136 133 129 127 123 121 120 120 120 119 120 119 119 117 114 113 111 109 106 105 102 100 97 93 91 87 85 79 70 61 56 58 68 85 95 99 102 108 112 115 114 111 104 103 111 113 123 132 108 52 32 81 110 103 99 98 99 99 98 98 94 89 86 89 89 87
158 157 157 157 156 155 153 151 149 147 146 146 146 146 144 141 141 140 140 139 135 132 129 125 123 121 121 121 121 121 121 121 119 117 114 111 108 105 102 101 98 95 94 91 86 83 81 73 63 57 63 87 104 106 106 106 109 110 110 109 106 100 94 94 97 139 172 174 203 312 97 113 103 99 96 97 101 102 103 102 92 86 91 92 89
158 157 157 157 156 154 153 151 149 148 147 147 147 147 146 143 143 142 143 140 138 135 130 126 125 124 123 123 124 124 124 123 122 120 116 115 114 111 110 110 107 105 107 105 100 94 85 75 66 60 73 104 117 116 115 113 113 112 110 106 99 89 76 68 74 155 186 178 182 203 132 108 99 103 103 99 103 104 104 104 92 88 93 93 89
156 157 157 157 155 154 153 150 149 150 149 148 149 149 147 145 144 143 144 142 140 136 130 128 128 127 126 127 127 128 128 126 127 126 125 125 123 123 124 127 125 123 125 125 117 104 88 79 72 65 82 114 126 124 122 119 116 113 107 99 86 75 66 67 86 124 142 156 165 165 129 112 105 110 113 107 100 95 99 102 96 93 94 95 91
155 156 157 155 153 154 153 150 149 150 149 149 151 150 148 146 144 144 144 143 141 135 131 131 131 129 129 131 131 131 130 130 134 133 133 134 133 134 133 134 136 128 121 121 110 101 90 85 79 71 92 121 131 130 126 121 116 110 101 89 78 68 68 85 109 117 119 128 133 132 130 127 119 115 116 117 105 92 93 97 98 98 101 105 99
153 155 156 153 153 156 154 150 149 149 149 150 152 150 148 145 144 144 143 143 139 135 134 135 134 132 132 132 133 134 132 133 140 142 144 145 146 145 138 139 142 127 115 116 110 102 94 89 83 77 99 126 136 134 129 124 117 106 93 82 74 67 76 107 129 124 121 115 111 119 134 136 124 119 119 120 112 106 106 105 109 111 114 118 96
152 155 154 151 153 156 154 150 148 148 149 151 152 150 147 145 144 144 143 141 138 137 137 138 137 135 134 132 132 134 133 137 145 152 155 156 157 156 146 143 139 126 121 120 113 104 97 91 82 80 101 128 140 139 135 127 116 102 91 79 69 65 82 122 142 138 130 116 108 108 123 129 123 128 127 124 124 127 125 122 127 129 130 122 83
150 152 150 151 154 156 153 150 149 149 150 152 151 149 146 144 144 144 143 140 140 141 140 141 140 137 134 131 131 132 135 141 152 161 164 162 165 169 153 153 144 130 131 126 117 107 101 93 81 79 99 127 142 143 139 129 117 103 89 74 67 64 77 128 154 152 145 129 113 100 104 110 114 125 128 130 139 144 142 140 146 145 133 108 86
149 149 149 151 151 152 152 151 151 149 151 152 150 148 145 144 144 144 143 142 142 143 144 143 140 135 132 130 129 128 131 137 145 156 163 163 167 170 155 154 149 140 142 136 122 112 104 95 84 81 98 126 143 146 141 132 119 103 85 73 69 66 72 118 161 163 159 146 120 100 89 84 87 102 123 133 134 130 132 137 133 129 123 109 102
149 148 147 148 146 148 151 151 151 150 151 151 149 147 145 145 145 145 144 144 146 147 146 142 138 134 130 126 122 122 124 127 132 140 148 152 156 159 152 149 148 148 149 142 129 119 110 99 87 82 95 123 143 149 146 139 124 102 84 79 73 69 72 93 158 175 172 159 127 102 70 58 55 57 96 136 141 134 127 120 104 105 108 110 117
147 146 144 144 144 147 149 150 151 150 150 149 148 145 144 145 146 146 146 148 150 150 145 140 137 132 126 118 113 117 119 119 121 123 127 130 136 145 148 148 149 153 152 147 137 126 116 106 94 87 91 116 141 152 152 146 133 110 90 85 79 69 63 67 138 192 188 182 152 113 49 37 34 29 35 68 167 145 131 127 114 113 94 104 116
144 143 142 142 144 145 146 148 150 148 146 146 145 145 145 145 146 148 149 151 152 148 143 140 136 128 122 117 118 120 120 117 112 110 108 106 114 130 142 148 152 157 158 152 144 133 123 112 103 95 93 104 128 152 161 159 148 126 102 88 83 64 49 53 50 221 206 214 205 163 26 23 24 18 9 1 331 82 142 162 137 152 135 126 126
144 145 143 142 143 142 143 145 146 144 142 144 143 144 145 146 147 149 152 153 151 146 142 139 133 128 126 125 126 125 122 116 108 102 94 90 93 115 135 144 153 159 161 157 150 141 128 115 106 98 95 95 103 124 164 177 167 147 116 93 82 55 35 39 26 348 215 222 224 211 353 10 18 14 0 353 329 294 231 225 249 238 204 177 154
144 145 144 143 142 141 143 144 145 143 142 144 144 146 148 149 150 151 153 152 149 145 143 139 134 132 128 127 125 120 115 107 98 93 88 84 81 95 122 139 151 158 163 163 157 146 131 116 105 94 91 90 91 91 97 160 169 161 133 98 67 33 15 23 16 356 235 222 230 237 298 351 8 7 358 350 328 302 282 254 260 239 232 235 197
142 143 141 142 143 143 146 148 148 146 147 147 148 151 152 152 152 154 154 151 149 147 145 142 136 127 120 123 117 106 100 94 87 84 86 82 77 79 95 126 147 157 165 168 161 151 140 122 105 93 85 79 81 88 94 139 169 170 154 94 13 341 333 355 7 355 300 230 236 246 268 320 350 355 355 350 337 327 320 335 326 250 252 262 215
140 141 140 142 145 148 151 152 152 151 152 151 153 154 155 156 154 156 155 152 150 150 151 148 140 125 118 121 114 102 93 88 80 75 80 80 75 70 74 95 130 154 165 170 166 161 155 138 99 73 51 28 23 18 356 275 216 215 233 303 340 332 323 326 343 345 327 246 244 253 264 294 325 339 348 346 339 337 335 334 338 296 281 271 188
138 139 140 145 148 151 153 156 156 156 156 154 156 156 159 160 157 158 156 154 154 158 161 155 148 135 130 128 118 109 96 87 77 68 69 77 78 72 71 76 91 127 156 167 170 170 166 52 1 353 346 338 334 327 329 319 258 240 294 316 324 332 325 312 320 332 325 270 253 259 263 278 301 320 333 336 331 332 337 331 331 315 292 198 189
137 138 142 147 150 152 155 158 158 160 160 158 159 159 162 162 163 163 157 158 162 167 168 162 157 146 142 138 127 115 101 88 79 70 63 68 74 76 78 75 76 87 117 151 155 136 70 17 359 345 342 338 332 324 324 327 286 256 310 325 322 328 331 312 304 316 319 292 262 260 263 273 284 299 315 323 321 322 331 327 322 303 283 179 195
139 141 144 148 150 152 155 158 159 163 164 162 164 165 165 165 167 165 159 161 168 172 172 168 162 153 147 143 138 122 114 91 76 78 58 60 65 69 82 82 77 78 88 105 106 88 63 44 23 359 348 338 332 331 323 319 296 270 291 309 311 315 324 320 303 305 313 304 278 266 266 270 274 289 304 309 309 313 323 321 319 299 275 238 210
142 141 142 145 147 152 155 158 163 167 168 167 169 170 169 169 169 166 162 165 170 174 172 166 160 158 157 150 147 136 141 105 79 100 47 49 60 57 72 79 74 74 81 92 92 62 36 28 11 354 346 334 327 330 326 322 313 300 298 299 298 298 300 306 304 298 303 305 288 269 265 268 271 282 293 297 300 302 308 309 310 295 275 270 237
134 134 137 141 147 154 158 162 168 173 174 173 172 173 172 172 170 167 166 167 171 175 170 161 155 157 164 165 174 166 159 167 171 179 321 5 23 31 47 58 57 54 60 74 59 22 3 345 349 349 346 336 330 332 331 330 326 323 321 312 300 292 288 291 297 289 287 296 289 268 261 263 268 276 283 286 290 293 296 295 295 286 275 272 252
129 132 136 140 149 156 160 166 173 179 181 178 175 174 174 174 172 169 169 169 172 173 167 161 157 161 165 163 185 178 158 178 227 228 250 310 328 328 1 30 45 42 35 35 13 9 2 348 347 346 343 337 333 333 332 333 332 330 332 330 315 296 287 285 289 283 274 282 284 274 267 264 266 272 276 278 283 286 286 284 284 278 270 271 259
132 137 142 145 153 157 159 168 178 185 187 183 181 177 176 177 176 174 170 168 170 170 168 165 166 179 177 164 181 187 176 202 247 238 246 289 315 230 110 31 77 92 41 341 342 351 344 343 342 336 336 335 334 331 328 327 328 329 328 332 333 319 304 297 296 288 274 275 279 277 272 268 271 273 273 274 278 282 281 278 278 275 267 264 263
140 144 148 149 155 159 161 167 177 188 191 187 186 184 180 179 179 176 170 169 169 168 169 174 186 197 183 182 197 189 187 239 248 222 236 260 245 170 177 8 74 89 49 1 339 341 336 337 340 339 337 336 338 336 330 326 327 330 328 326 329 331 325 317 312 300 284 281 282 278 273 271 274 276 275 273 275 281 280 276 276 274 268 259 259
140 141 146 149 155 163 163 164 166 175 192 193 190 188 181 179 181 177 173 174 173 173 175 182 194 194 179 185 201 194 200 248 242 231 256 253 231 211 221 225 71 45 39 9 340 337 334 335 338 339 337 336 339 337 332 328 326 328 330 326 320 318 315 314 316 309 295 290 286 277 271 272 275 276 277 275 276 280 276 275 276 268 264 258 252
134 135 145 151 156 166 168 166 159 157 174 190 192 189 182 179 181 180 182 186 184 184 186 187 192 196 194 192 198 204 214 225 229 253 259 247 236 230 236 220 191 14 24 359 345 339 328 328 331 329 331 334 334 333 331 328 326 328 329 326 321 316 312 307 306 309 307 298 289 279 273 273 276 277 278 277 277 278 275 279 277 260 255 254 249
142 143 151 155 158 169 178 175 167 162 163 175 187 187 183 182 186 190 194 199 198 195 195 192 187 192 200 197 199 209 217 217 206 202 189 159 206 212 205 169 135 39 17 350 344 341 334 338 343 340 337 334 330 330 332 330 329 332 332 329 325 321 317 312 306 305 306 301 291 285 282 278 279 279 278 278 277 278 279 283 280 264 259 253 245
153 152 152 152 157 171 183 180 176 174 163 167 185 189 188 191 193 192 186 182 183 184 185 184 180 184 196 202 207 212 215 209 185 152 133 116 111 135 134 116 95 42 5 344 345 347 350 355 353 350 347 343 338 336 335 333 331 328 327 326 323 321 319 316 311 307 303 299 292 286 286 284 283 280 277 277 278 281 285 286 282 271 267 258 247
157 160 154 150 157 170 181 183 181 181 172 173 188 193 195 194 187 179 169 165 166 167 168 172 180 190 204 211 214 212 184 164 161 134 125 120 113 120 118 101 75 49 8 351 358 1 360 357 354 351 349 347 342 338 334 331 329 326 325 325 323 323 321 315 312 309 306 303 299 294 292 292 289 284 281 281 282 286 287 286 282 275 273 267 256
157 161 155 151 158 167 174 180 179 180 178 180 184 184 186 184 178 174 170 170 170 170 171 175 186 201 214 216 213 201 173 165 164 146 133 119 111 112 110 113 97 69 21 358 2 6 357 353 357 351 344 341 336 333 333 332 331 330 329 326 324 325 321 316 313 310 309 308 305 301 299 298 295 290 287 287 288 291 291 288 284 281 280 273 263
158 159 155 152 158 164 169 174 174 174 173 176 177 173 175 176 176 176 175 178 179 181 183 186 197 210 218 213 201 185 171 174 175 162 157 143 118 105 115 136 119 74 36 16 20 19 7 4 5 354 343 338 335 335 337 337 335 334 333 328 325 323 320 316 314 313 314 312 308 305 303 301 298 294 293 292 293 296 297 293 288 284 283 278 271
158 158 157 155 157 162 170 173 173 173 171 174 175 173 174 175 175 176 179 181 185 188 189 193 202 212 214 202 190 182 179 183 170 141 139 134 108 106 101 92 88 73 60 56 50 34 21 15 11 5 357 349 346 348 347 342 338 336 335 331 327 322 319 319 317 316 316 314 312 308 307 305 302 299 296 295 297 300 300 296 292 288 284 280 277
160 161 161 158 156 162 170 171 171 171 171 173 174 173 175 175 177 180 182 184 189 191 192 197 200 204 205 194 191 185 180 179 154 114 110 105 96 100 98 86 85 83 77 72 63 52 46 34 23 23 21 19 14 6 354 343 341 341 338 334 332 327 323 325 326 326 326 324 322 318 314 312 309 307 304 302 302 302 302 301 298 294 290 286 282
164 166 164 158 157 162 167 168 168 168 169 172 173 174 176 177 177 179 181 184 187 186 191 195 193 197 197 189 190 171 152 143 124 110 108 105 102 101 98 92 91 92 86 78 68 60 61 47 33 30 32 40 31 15 1 345 340 340 336 335 340 343 336 336 350 357 350 335 324 320 319 319 317 315 314 311 309 306 304 304 302 300 298 295 288
169 166 161 156 156 159 162 164 165 167 169 171 173 174 175 175 175 175 174 175 179 179 183 186 185 186 173 149 138 130 122 116 113 112 112 111 108 103 100 97 94 95 85 74 65 57 56 47 40 34 30 42 30 17 8 351 346 340 336 344 359 3 358 22 42 13 359 352 339 329 328 329 327 325 323 320 316 312 309 308 307 305 303 301 296
169 162 157 155 155 158 160 160 164 170 173 174 175 177 176 172 169 170 168 167 173 174 169 167 165 154 137 124 119 116 113 111 113 115 115 112 108 105 102 98 94 92 83 75 68 60 54 47 45 39 35 40 31 23 15 3 359 350 340 347 3 17 26 72 36 4 6 12 5 356 353 352 349 343 336 327 320 317 316 314 312 310 307 305 303
165 161 158 157 158 160 161 160 165 172 176 178 178 179 181 176 169 167 165 163 166 168 158 146 138 130 123 118 115 114 113 111 113 115 111 107 106 103 100 97 94 92 86 78 68 58 50 42 40 39 43 45 40 32 26 24 11 353 337 339 351 8 17 1 341 355 10 13 11 13 10 9 8 3 356 347 337 327 321 316 313 312 309 306 305
163 162 161 160 160 161 162 163 167 172 176 180 180 181 181 178 173 167 164 159 151 147 139 132 130 124 118 117 116 116 115 112 111 112 105 101 101 98 96 93 88 84 81 72 60 54 47 42 42 40 43 43 42 39 37 39 24 6 354 350 348 340 353 354 340 345 2 12 15 18 9 4 4 4 5 5 0 351 342 334 326 319 313 309 306
164 163 163 163 162 161 163 166 169 172 174 177 179 180 175 169 168 165 160 149 136 130 127 126 127 124 119 118 118 116 116 111 108 110 106 101 98 94 91 85 80 74 70 66 58 52 47 45 43 41 42 42 42 41 42 45 38 32 17 323 305 316 346 349 334 329 344 8 6 8 1 351 350 357 360 359 360 358 355 350 345 339 329 319 312
168 168 167 164 160 160 165 169 170 170 172 174 175 176 170 161 156 151 145 137 131 128 125 125 125 123 119 116 114 115 115 109 106 106 101 96 92 89 87 82 79 72 67 66 61 56 51 48 44 42 46 49 48 44 45 48 48 52 50 22 338 339 334 328 331 308 309 338 333 349 358 349 348 356 354 350 350 350 350 352 354 353 347 338 327
172 173 168 164 160 161 166 170 169 169 171 173 173 173 171 164 156 149 144 139 136 133 130 128 126 123 119 115 112 110 108 102 97 95 93 92 89 85 84 82 78 72 69 67 62 57 53 51 46 44 49 49 49 49 46 47 52 55 56 59 55 29 350 333 343 297 318 328 302 336 348 347 351 354 351 349 351 351 353 359 2 2 360 356 348
172 171 165 164 163 162 165 167 167 171 173 172 171 172 171 167 160 155 150 145 140 137 136 133 129 125 121 118 112 104 100 97 92 89 88 88 87 83 81 82 79 74 70 68 66 62 59 55 47 46 50 48 51 57 51 46 49 50 50 56 55 49 39 22 20 318 323 327 309 333 340 346 350 352 353 354 355 356 0 7 6 5 7 10 9
168 167 165 166 166 164 165 165 166 172 176 173 172 171 169 165 160 155 150 146 142 138 138 134 131 128 122 118 114 107 102 98 94 89 84 83 85 85 85 85 83 78 76 74 72 68 61 56 52 53 56 55 57 61 58 53 52 49 46 46 46 47 47 39 28 0 330 303 318 333 336 341 348 356 356 355 355 355 358 5 5 5 11 18 20
166 166 168 167 165 165 165 164 166 172 176 175 173 169 168 164 158 153 147 143 142 140 139 135 132 130 123 119 115 110 102 96 96 92 88 87 83 86 90 88 86 85 84 80 75 67 62 64 67 66 66 63 61 62 63 61 56 48 42 39 38 39 40 36 27 17 2 323 326 332 335 339 343 347 351 350 350 349 350 356 358 4 11 10 10
163 166 168 165 162 164 166 166 167 172 174 176 175 168 165 163 158 153 146 143 142 140 139 136 133 130 123 117 112 105 97 94 97 95 90 86 81 86 89 88 88 88 87 84 75 68 69 76 78 75 73 68 64 63 62 59 55 51 49 45 40 36 33 31 26 19 11 348 332 324 334 340 333 330 338 344 345 345 350 354 354 2 6 355 352
160 163 164 162 161 163 166 166 167 172 172 175 176 169 163 161 158 153 149 148 147 145 141 136 133 129 121 115 109 101 98 99 98 91 84 84 85 89 89 89 91 89 87 83 75 74 79 83 82 79 76 72 66 63 61 61 62 60 57 52 46 42 37 31 24 21 16 357 335 326 332 334 323 317 328 337 340 343 350 353 353 1 359 347 347